When you browse on this site, cookies collect data to enhance your experience and personalize the content and advertising you see.
Visit our Privacy Policy to learn more. By continuing to use the site, you agree to this use of cookies and data.
  • En España
  • Lista de países
  • Para 7 días
  • Temperatura del agua
  • Mapa Satelital
  • El tiempo en el mapa
  • Informadores
  • user-avatar
    Iniciar sesión

    Tiempo cada hora La Rioja

    Hoy, 22 Marzo, Viernes

    Tiempo Temperatura Precipitaciones Viento Presión Humedad
    00:00 +18°C° 0 mm 1 mps 715 mmHg 70%
    01:00 +18°C° 0 mm 1 mps 715 mmHg 71%
    02:00 +17°C° 0 mm 2 mps 714 mmHg 73%
    03:00 +16°C° 0 mm 2 mps 714 mmHg 74%
    04:00 +16°C° 0 mm 2 mps 714 mmHg 76%
    05:00 +16°C° 0 mm 2 mps 714 mmHg 78%
    06:00 +17°C° 0 mm 2 mps 715 mmHg 74%
    07:00 +18°C° 0 mm 2 mps 715 mmHg 70%
    08:00 +18°C° 0 mm 2 mps 716 mmHg 67%
    09:00 +20°C° 0 mm 3 mps 716 mmHg 61%
    10:00 +22°C° 0 mm 3 mps 716 mmHg 56%
    11:00 +25°C° 0 mm 3 mps 716 mmHg 50%
    12:00 +26°C° 0 mm 3 mps 716 mmHg 47%
    13:00 +27°C° 0 mm 3 mps 716 mmHg 43%
    14:00 +28°C° 0 mm 3 mps 715 mmHg 40%
    15:00 +28°C° 0 mm 3 mps 715 mmHg 39%
    16:00 +29°C° 0 mm 2 mps 715 mmHg 39%
    17:00 +29°C° 0 mm 2 mps 714 mmHg 38%
    18:00 +27°C° 0 mm 2 mps 715 mmHg 43%
    19:00 +25°C° 0 mm 1 mps 715 mmHg 49%
    20:00 +23°C° 0 mm 1 mps 715 mmHg 54%
    21:00 +23°C° 0 mm 1 mps 716 mmHg 55%
    22:00 +22°C° 0 mm 1 mps 716 mmHg 57%
    23:00 +22°C° 0 mm 1 mps 716 mmHg 59%

    Mañana, 23 Marzo, Sábado

    Tiempo Temperatura Precipitaciones Viento Presión Humedad
    00:00 +22°C° 0 mm 1 mps 716 mmHg 61%
    01:00 +21°C° 0 mm 1 mps 716 mmHg 64%
    02:00 +21°C° 0 mm 1 mps 716 mmHg 66%
    03:00 +20°C° 0 mm 1 mps 715 mmHg 69%
    04:00 +20°C° 0 mm 1 mps 715 mmHg 72%
    05:00 +19°C° 0 mm 1 mps 715 mmHg 74%
    06:00 +21°C° 0 mm 1 mps 715 mmHg 69%
    07:00 +22°C° 0 mm 1 mps 715 mmHg 64%
    08:00 +23°C° 0 mm 1 mps 715 mmHg 59%
    09:00 +25°C° 0 mm 1 mps 715 mmHg 54%
    10:00 +27°C° 0 mm 2 mps 715 mmHg 49%
    11:00 +29°C° 0 mm 2 mps 715 mmHg 44%
    12:00 +30°C° 0 mm 2 mps 714 mmHg 42%
    13:00 +31°C° 0 mm 3 mps 714 mmHg 40%
    14:00 +33°C° 0 mm 3 mps 713 mmHg 38%
    15:00 +33°C° 0 mm 3 mps 712 mmHg 38%
    16:00 +32°C° 0 mm 2 mps 712 mmHg 38%
    17:00 +32°C° 0 mm 2 mps 712 mmHg 37%
    18:00 +31°C° 0 mm 2 mps 712 mmHg 41%
    19:00 +29°C° 0 mm 3 mps 713 mmHg 45%
    20:00 +27°C° 0 mm 3 mps 714 mmHg 49%
    21:00 +27°C° 0 mm 2 mps 714 mmHg 52%
    22:00 +26°C° 0 mm 2 mps 715 mmHg 55%
    23:00 +25°C° 0 mm 2 mps 716 mmHg 59%

    Pasado mañana, 24 Marzo, Domingo

    Tiempo Temperatura Precipitaciones Viento Presión Humedad
    00:00 +25°C° 0 mm 2 mps 716 mmHg 59%
    01:00 +25°C° 0 mm 2 mps 716 mmHg 60%
    02:00 +25°C° 0 mm 3 mps 716 mmHg 60%
    03:00 +24°C° 0.2 mm 3 mps 716 mmHg 61%
    04:00 +24°C° 0.2 mm 3 mps 716 mmHg 63%
    05:00 +22°C° 0.2 mm 3 mps 716 mmHg 64%
    06:00 +24°C° 0 mm 3 mps 717 mmHg 61%
    07:00 +25°C° 0 mm 3 mps 717 mmHg 58%
    08:00 +25°C° 0 mm 3 mps 718 mmHg 55%
    09:00 +27°C° 0 mm 3 mps 718 mmHg 52%
    10:00 +28°C° 0 mm 3 mps 718 mmHg 48%
    11:00 +30°C° 0 mm 3 mps 718 mmHg 45%
    12:00 +30°C° 0.2 mm 3 mps 718 mmHg 44%
    13:00 +31°C° 0.2 mm 3 mps 717 mmHg 43%
    14:00 +31°C° 0.2 mm 3 mps 716 mmHg 42%
    15:00 +31°C° 0.1 mm 3 mps 716 mmHg 43%
    16:00 +31°C° 0.1 mm 3 mps 715 mmHg 43%
    17:00 +31°C° 0.1 mm 3 mps 714 mmHg 43%
    18:00 +30°C° 0.1 mm 3 mps 715 mmHg 48%
    19:00 +28°C° 0.1 mm 2 mps 715 mmHg 53%
    20:00 +27°C° 0.1 mm 1 mps 716 mmHg 58%
    21:00 +27°C° 0.4 mm 1 mps 716 mmHg 60%
    22:00 +26°C° 0.4 mm 2 mps 716 mmHg 61%
    23:00 +26°C° 0.4 mm 2 mps 717 mmHg 63%

    25 Marzo, Lunes

    Tiempo Temperatura Precipitaciones Viento Presión Humedad
    00:00 +25°C° 0.1 mm 2 mps 716 mmHg 64%
    01:00 +24°C° 0.1 mm 2 mps 716 mmHg 66%
    02:00 +23°C° 0.1 mm 1 mps 716 mmHg 67%
    03:00 +23°C° 0 mm 1 mps 715 mmHg 67%
    04:00 +22°C° 0 mm 1 mps 715 mmHg 67%
    05:00 +22°C° 0 mm 1 mps 715 mmHg 67%
    06:00 +23°C° 0.2 mm 1 mps 715 mmHg 65%
    07:00 +23°C° 0.2 mm 2 mps 716 mmHg 62%
    08:00 +24°C° 0.2 mm 2 mps 716 mmHg 59%
    09:00 +25°C° 0.1 mm 2 mps 716 mmHg 57%
    10:00 +26°C° 0.1 mm 2 mps 716 mmHg 54%
    11:00 +27°C° 0.1 mm 3 mps 716 mmHg 52%
    12:00 +28°C° 0 mm 3 mps 716 mmHg 49%
    13:00 +28°C° 0 mm 3 mps 715 mmHg 46%
    14:00 +29°C° 0 mm 4 mps 715 mmHg 43%
    15:00 +29°C° 0 mm 4 mps 714 mmHg 44%
    16:00 +29°C° 0 mm 4 mps 714 mmHg 45%
    17:00 +29°C° 0 mm 5 mps 714 mmHg 46%
    18:00 +27°C° 0 mm 5 mps 715 mmHg 50%
    19:00 +26°C° 0 mm 4 mps 716 mmHg 55%
    20:00 +23°C° 0 mm 4 mps 717 mmHg 60%
    21:00 +22°C° 0 mm 4 mps 717 mmHg 63%
    22:00 +21°C° 0 mm 3 mps 718 mmHg 66%
    23:00 +20°C° 0 mm 2 mps 718 mmHg 69%

    26 Marzo, Martes

    Tiempo Temperatura Precipitaciones Viento Presión Humedad
    00:00 +20°C° 0 mm 2 mps 719 mmHg 70%
    01:00 +20°C° 0 mm 2 mps 719 mmHg 71%
    02:00 +19°C° 0 mm 2 mps 719 mmHg 72%
    03:00 +19°C° 0 mm 2 mps 719 mmHg 72%
    04:00 +18°C° 0 mm 2 mps 719 mmHg 73%
    05:00 +18°C° 0 mm 2 mps 719 mmHg 74%
    06:00 +18°C° 0.1 mm 2 mps 719 mmHg 73%
    07:00 +18°C° 0.1 mm 2 mps 720 mmHg 73%
    08:00 +18°C° 0.1 mm 2 mps 721 mmHg 72%
    09:00 +18°C° 0.3 mm 2 mps 721 mmHg 73%
    10:00 +18°C° 0.3 mm 2 mps 721 mmHg 74%
    11:00 +18°C° 0.3 mm 2 mps 721 mmHg 75%
    12:00 +18°C° 0.2 mm 2 mps 721 mmHg 76%
    13:00 +18°C° 0.2 mm 2 mps 720 mmHg 76%
    14:00 +18°C° 0.2 mm 3 mps 720 mmHg 77%
    15:00 +18°C° 0.1 mm 3 mps 720 mmHg 76%
    16:00 +18°C° 0.1 mm 3 mps 720 mmHg 76%
    17:00 +18°C° 0.1 mm 3 mps 719 mmHg 76%
    18:00 +18°C° 0 mm 3 mps 720 mmHg 77%
    19:00 +18°C° 0 mm 3 mps 721 mmHg 78%
    20:00 +18°C° 0 mm 3 mps 722 mmHg 78%
    21:00 +18°C° 0 mm 3 mps 722 mmHg 79%
    22:00 +17°C° 0 mm 2 mps 722 mmHg 80%
    23:00 +17°C° 0 mm 2 mps 722 mmHg 80%

    27 Marzo, Miércoles

    Tiempo Temperatura Precipitaciones Viento Presión Humedad
    00:00 +17°C° 0 mm 2 mps 722 mmHg 82%
    01:00 +16°C° 0 mm 2 mps 722 mmHg 83%
    02:00 +16°C° 0 mm 1 mps 721 mmHg 84%
    03:00 +16°C° 0 mm 1 mps 721 mmHg 85%
    04:00 +16°C° 0 mm 1 mps 721 mmHg 86%
    05:00 +15°C° 0 mm 1 mps 720 mmHg 88%
    06:00 +16°C° 0 mm 1 mps 721 mmHg 85%
    07:00 +16°C° 0 mm 1 mps 721 mmHg 83%
    08:00 +18°C° 0 mm 1 mps 721 mmHg 81%
    09:00 +18°C° 0 mm 2 mps 721 mmHg 76%
    10:00 +19°C° 0 mm 2 mps 720 mmHg 72%
    11:00 +20°C° 0 mm 3 mps 720 mmHg 67%
    12:00 +21°C° 0 mm 3 mps 719 mmHg 63%
    13:00 +22°C° 0 mm 3 mps 718 mmHg 60%
    14:00 +24°C° 0 mm 3 mps 717 mmHg 56%
    15:00 +24°C° 0 mm 3 mps 717 mmHg 57%
    16:00 +24°C° 0 mm 3 mps 717 mmHg 57%
    17:00 +24°C° 0 mm 3 mps 716 mmHg 57%
    18:00 +23°C° 0 mm 2 mps 717 mmHg 62%
    19:00 +21°C° 0 mm 2 mps 717 mmHg 66%
    20:00 +20°C° 0 mm 2 mps 718 mmHg 71%
    21:00 +20°C° 0 mm 1 mps 718 mmHg 73%
    22:00 +20°C° 0 mm 1 mps 718 mmHg 75%
    23:00 +20°C° 0 mm 1 mps 718 mmHg 78%
    Mostrar más